Yuma MCAS, AZ

10:20 AM MST on April 28, 2017 (GMT -0700)
Yuma Marine Corps Air Station

Weather History for KNYL - February, 2012

Change the Weather History Date:

Saturday, February 11, 2012

  Actual Average Record
Temperature  
Mean Temperature 65 °F 61 °F  
Max Temperature 77 °F 73 °F 87 °F (2016)
Min Temperature 52 °F 50 °F 32 °F (1923)
Degree Days  
Heating Degree Days 0 4  
Month to date heating degree days 46 54  
Since 1 July heating degree days 547 562  
Cooling Degree Days 0 1  
Month to date cooling degree days 4 10  
Year to date cooling degree days 7 16  
Growing Degree Days 14 (Base 50)    
Moisture  
Dew Point 33 °F    
Average Humidity 33    
Maximum Humidity 47    
Minimum Humidity 19    
Precipitation  
Precipitation 0.00 in 0.01 in 0.70 in (1892)
Month to date precipitation 0.00 0.14  
Year to date precipitation T 0.51  
Sea Level Pressure  
Sea Level Pressure 29.88 in    
Wind  
Wind Speed 6 mph (WNW)    
Max Wind Speed 21 mph    
Max Gust Speed 25 mph    
Visibility 10 miles    
Events      
T = Trace of Precipitation, MM = Missing Value Source: NWS Daily Summary

Daily Weather History Graph

Daily Weather History Graph

Search for Another Location

Airport or City:

Trip Planner

Search our weather history database for the weather conditions in past years. The results will help you decide how hot, cold, wet, or windy it might be!

Date:

Astronomy

Feb. 11, 2012 Rise Set
Actual Time 7:25 AM MST 6:20 PM MST
Civil Twilight 7:00 AM MST 6:45 PM MST
Nautical Twilight 6:31 AM MST 7:14 PM MST
Astronomical Twilight 6:02 AM MST 7:43 PM MST
Moon 10:52 PM MST (2/11) 9:28 AM MST (2/11)
Length of Visible Light 11h 45m
Length of Day
10h 54m
Waning Gibbous, 81% of the Moon is Illuminated
Feb 11
Waning Gibbous
Feb 14
Last Quarter
Feb 21
New
Feb 29
First Quarter
Mar 8
Full

Hourly Weather History & Observations

Time (MST) Temp. Dew Point Humidity Pressure Visibility Wind Dir Wind Speed Gust Speed Precip Events Conditions
12:55 AM 62.1 °F 32.0 °F 32% 29.96 in 10.0 mi Calm Calm - N/A   Clear
1:55 AM 59.0 °F 33.1 °F 38% 29.95 in 10.0 mi NE 3.5 mph - N/A   Clear
2:55 AM 55.9 °F 36.0 °F 47% 29.95 in 10.0 mi Calm Calm - N/A   Clear
3:55 AM 57.0 °F 34.0 °F 42% 29.93 in 10.0 mi ENE 4.6 mph - N/A   Clear
4:55 AM 55.0 °F 33.1 °F 43% 29.92 in 10.0 mi ENE 3.5 mph - N/A   Clear
5:55 AM 53.1 °F 34.0 °F 48% 29.92 in 10.0 mi Calm Calm - N/A   Clear
6:55 AM 54.0 °F 32.0 °F 43% 29.91 in 10.0 mi East 4.6 mph - N/A   Clear
7:55 AM 53.1 °F 30.0 °F 41% 29.93 in 10.0 mi Calm Calm - N/A   Clear
8:55 AM 59.0 °F 30.0 °F 33% 29.93 in 10.0 mi East 3.5 mph - N/A   Clear
9:55 AM 64.0 °F 32.0 °F 30% 29.93 in 10.0 mi Calm Calm - N/A   Clear
10:55 AM 68.0 °F 34.0 °F 28% 29.93 in 10.0 mi Calm Calm - N/A   Clear
11:55 AM 72.0 °F 37.0 °F 28% 29.92 in 10.0 mi West 6.9 mph - N/A   Clear
12:00 PM - - N/A% - - North - - N/A   Unknown
12:55 PM 73.0 °F 32.0 °F 22% 29.89 in 10.0 mi Variable 4.6 mph - N/A   Clear
1:55 PM 73.9 °F 32.0 °F 21% 29.85 in 10.0 mi Variable 4.6 mph - N/A   Clear
2:55 PM 75.9 °F 36.0 °F 23% 29.81 in 10.0 mi West 5.8 mph - N/A   Clear
3:55 PM 75.9 °F 34.0 °F 22% 29.81 in 10.0 mi West 6.9 mph - N/A   Clear
4:55 PM 73.9 °F 28.9 °F 19% 29.80 in 10.0 mi WNW 17.3 mph 25.3 mph N/A   Clear
5:55 PM 71.1 °F 34.0 °F 26% 29.81 in 10.0 mi WNW 15.0 mph 21.9 mph N/A   Clear
6:55 PM 66.0 °F 32.0 °F 28% 29.82 in 10.0 mi WNW 12.7 mph - N/A   Partly Cloudy
7:12 PM - - N/A% - - North - - N/A   Unknown
7:55 PM 63.0 °F 30.0 °F 29% 29.83 in 10.0 mi WNW 13.8 mph 18.4 mph N/A   Partly Cloudy
8:55 PM 60.1 °F 30.9 °F 33% 29.84 in 10.0 mi West 12.7 mph - N/A   Clear
9:55 PM 59.0 °F 33.1 °F 38% 29.86 in 10.0 mi WNW 11.5 mph - N/A   Clear
10:55 PM 57.0 °F 35.1 °F 44% 29.87 in 10.0 mi WNW 9.2 mph - N/A   Clear
11:55 PM 55.9 °F 36.0 °F 47% 29.88 in 10.0 mi WNW 6.9 mph - N/A   Clear